Temperature
18 18 19 18 18 18 18 18 18 18 18 18 18 18 18 18 18 18 18 18 18 18 18 18 18 18 18 18 17 17 17 17 17 17 17 17 17 17 17 17 17 17 17
18 18 18 18 18 18 18 18 18 18 18 18 18 18 18 18 18 18 18 18 18 18 18 18 18 18 18 18 17 17 17 17 17 17 17 17 17 17 17 17 17 17 16
18 18 18 18 18 18 18 18 18 18 18 18 18 18 18 18 18 18 18 18 18 18 18 18 18 18 18 18 17 17 17 17 17 17 17 17 17 17 17 17 17 17 16
18 18 18 18 18 18 18 18 18 18 18 18 18 18 18 18 18 18 18 18 18 18 18 18 18 18 18 18 18 17 17 17 17 17 17 17 17 17 17 17 17 16 16
18 18 18 18 18 18 18 18 18 18 18 18 18 18 18 18 18 18 18 18 18 18 18 18 18 18 18 18 18 18 18 17 17 17 17 17 17 17 17 17 17 17 16
18 18 18 18 18 18 18 18 18 18 18 18 18 18 18 18 18 18 18 18 18 18 18 18 18 18 18 18 18 18 18 17 17 17 17 17 17 17 17 17 17 17 16
18 18 18 18 18 18 18 18 18 18 18 18 18 18 18 18 18 18 18 18 18 18 18 18 18 18 18 18 18 18 17 17 17 17 17 17 17 17 17 17 17 17 16
18 18 18 18 18 18 18 18 18 18 17 17 17 17 18 18 18 18 18 18 18 18 18 18 18 18 18 18 18 18 18 18 17 17 17 17 17 17 17 17 17 16 16
18 18 18 18 18 18 18 18 18 17 17 17 17 17 17 17 17 18 18 18 18 18 18 18 17 17 17 17 18 18 18 18 17 17 17 17 17 17 17 17 17 16 16
18 18 18 18 18 18 18 18 18 17 17 17 17 17 17 17 17 17 17 17 17 17 17 17 17 17 17 17 17 17 17 17 17 17 17 17 17 17 17 17 16 16 16
18 18 18 18 18 18 18 17 17 17 17 17 17 17 17 17 17 17 17 17 17 17 17 17 17 17 17 17 17 17 17 17 17 17 17 17 16 16 16 16 16 16 16
18 18 18 18 18 18 18 17 17 17 17 17 17 17 17 17 17 16 16 17 17 17 17 17 17 17 17 17 17 17 17 17 17 17 17 16 16 16 16 16 16 16 16
18 18 18 18 18 18 17 17 17 17 17 17 17 16 16 16 16 16 16 16 16 16 16 16 16 16 16 16 17 17 17 17 17 17 16 16 16 16 16 16 16 16 16
18 18 18 17 17 17 17 17 17 17 17 17 16 16 16 16 16 16 16 16 16 16 16 16 16 16 16 16 16 16 16 16 16 16 16 16 16 16 16 16 16 16 16
18 18 17 17 17 17 17 17 17 17 16 16 16 16 16 16 16 16 15 15 15 15 15 15 15 15 16 16 16 16 16 16 16 16 16 16 16 16 16 16 16 16 15
17 17 17 17 17 17 17 17 16 16 16 16 16 16 16 16 16 15 15 15 15 15 15 15 15 15 15 15 15 15 16 16 16 16 16 16 16 16 15 16 15 15 15
17 17 17 17 17 17 17 16 16 16 16 16 16 16 15 15 15 15 15 15 15 15 14 15 15 15 15 15 15 15 15 15 15 15 15 15 15 15 15 15 15 15 15
17 17 17 17 17 17 16 16 16 16 16 16 15 15 15 15 15 15 15 15 15 14 14 14 14 15 15 15 15 15 15 15 15 15 15 15 15 15 15 15 15 15 15
17 17 16 16 16 16 16 16 16 15 15 15 15 15 15 15 14 14 14 14 14 14 14 14 14 14 14 14 14 14 14 15 15 15 15 15 14 14 15 15 15 15 15
17 16 16 16 16 16 16 16 15 15 15 15 15 15 15 14 14 14 14 14 14 14 14 14 14 14 14 14 14 14 14 14 14 14 14 14 14 14 14 14 14 14 14
16 16 16 16 16 15 15 15 15 15 15 15 15 15 14 14 14 14 14 14 13 13 13 13 13 14 14 14 14 14 14 14 14 14 14 14 14 14 14 14 14 14 14
16 16 16 16 15 15 15 15 15 15 15 14 14 14 14 14 14 14 14 14 13 13 13 13 13 13 13 13 13 13 13 13 13 13 13 13 13 13 13 13 13 13 13
16 16 16 15 15 15 15 15 15 14 14 14 14 14 14 14 14 13 13 13 13 13 13 13 13 13 13 13 13 13 13 13 13 13 13 13 13 13 13 13 13 13 13
16 15 15 15 15 15 15 15 14 14 14 14 14 14 14 13 13 13 13 13 13 13 13 13 13 13 13 13 13 13 12 12 12 12 12 12 13 13 13 13 13 13 13
15 15 15 15 15 15 15 14 14 14 14 14 13 13 13 13 13 13 13 13 13 13 13 13 13 13 13 12 12 12 12 12 12 12 12 12 12 12 13 13 13 12 12
15 14 14 14 14 14 14 14 13 13 13 13 13 13 13 13 13 12 12 12 12 13 12 12 12 12 12 12 12 12 12 12 12 12 12 12 12 11 12 12 12 12 12
Wind_Speed
1 1 1 1 2 1 1 1 1 2 2 2 2 3 3 3 4 4 5 7 8 8 10 10 10 11 11 10 10 10 10 10 10 10 10 9 10 10 10 10 10 10 10
1 0 1 1 2 2 1 1 2 1 2 2 2 2 3 3 4 5 5 6 7 7 8 9 9 10 11 10 10 10 10 10 10 10 10 9 10 11 11 11 11 11 10
2 1 1 1 1 1 1 1 1 1 1 1 2 2 2 3 4 4 4 4 5 6 7 8 9 9 9 9 10 11 12 12 11 10 11 10 10 10 10 11 11 11 11
2 1 1 1 1 1 0 0 1 1 1 1 1 2 1 2 3 4 4 4 4 4 6 8 9 9 9 9 10 10 11 12 12 12 12 11 11 10 10 11 11 11 11
2 1 1 1 1 1 0 1 0 1 1 1 2 1 1 2 2 3 3 3 3 3 4 6 7 8 8 9 10 10 11 11 12 11 11 11 11 11 11 11 10 11 11
1 1 0 1 1 1 1 0 0 0 1 1 1 1 1 2 1 2 2 2 2 3 3 4 4 6 8 9 9 10 10 10 11 11 11 11 11 11 11 11 11 10 10
1 1 0 1 1 0 1 1 0 0 0 0 1 1 2 1 1 1 1 1 1 2 2 3 3 4 5 7 8 9 9 9 9 9 10 10 11 11 10 10 10 10 10
1 1 1 1 0 0 1 1 1 0 0 1 1 1 1 2 2 1 1 1 1 1 2 2 3 4 5 5 7 9 9 9 8 9 9 10 10 11 11 10 9 10 10
1 1 1 1 1 1 1 1 1 1 1 0 1 2 1 1 2 2 1 1 1 2 2 2 3 4 4 5 5 7 9 10 10 10 10 10 10 10 11 11 10 10 11
1 1 2 1 1 1 1 1 1 1 2 1 0 0 1 2 1 2 2 2 2 2 3 2 3 3 4 4 6 7 8 9 10 10 10 9 9 10 11 11 11 11 11
1 1 1 1 1 1 1 1 1 2 2 2 2 1 1 1 1 2 3 3 3 3 3 3 3 3 4 5 5 6 7 8 8 9 9 9 8 8 10 11 11 11 11
1 1 1 1 1 1 2 2 2 2 2 2 2 2 2 1 2 2 3 3 3 3 3 2 2 3 4 5 6 6 6 7 7 8 9 8 8 8 9 10 11 11 10
1 2 1 1 1 2 2 2 2 2 2 2 2 2 2 3 2 2 2 2 3 2 2 2 3 3 4 4 6 7 6 6 6 7 8 8 8 8 8 9 9 9 10
2 2 1 1 1 1 1 1 1 1 1 2 2 2 2 2 2 2 2 2 2 2 2 3 2 3 4 5 6 6 6 7 7 6 7 8 8 8 8 8 9 9 8
2 1 1 2 1 1 1 1 1 1 1 2 2 2 2 2 2 2 2 3 2 3 3 2 2 3 4 4 5 5 6 6 6 6 7 7 8 8 8 9 9 9 9
2 2 2 1 1 1 1 1 1 1 1 2 2 2 2 2 2 2 2 2 3 3 3 2 3 4 4 4 5 5 6 6 6 7 7 7 7 7 7 8 9 9 9
3 2 2 2 2 2 1 1 1 1 1 2 2 2 2 2 2 2 2 2 2 3 3 3 2 3 3 4 4 4 4 5 5 6 6 6 7 7 7 7 8 9 9
3 3 3 3 3 2 2 2 2 2 2 2 2 2 2 2 2 2 2 2 2 3 3 4 3 2 3 3 3 3 3 3 4 4 5 5 5 6 6 6 7 8 9
3 3 3 3 3 3 3 3 3 3 3 3 2 2 2 2 2 2 2 2 3 3 3 3 4 2 2 2 3 3 3 3 4 4 4 4 5 5 6 6 6 7 8
3 3 4 4 3 3 3 3 3 3 3 3 3 2 2 2 3 3 3 3 3 3 3 3 3 3 3 2 2 3 4 3 3 3 4 4 5 5 5 5 6 6 7
4 4 3 3 3 3 3 3 3 4 3 3 3 3 3 3 4 4 3 3 3 3 3 3 4 3 3 2 3 2 3 4 3 2 3 3 3 3 3 4 5 6 6
3 3 3 3 3 3 4 4 3 3 3 3 3 3 4 4 5 5 5 5 5 5 4 4 4 5 5 4 3 3 3 3 3 2 2 4 2 3 3 3 5 7 7
3 3 3 3 4 5 4 4 4 3 3 3 3 3 3 3 3 3 4 5 5 7 7 5 6 6 5 4 4 4 4 4 5 3 2 4 3 4 4 4 7 8 8
3 4 4 4 4 5 4 4 3 2 2 3 3 4 4 4 4 3 4 4 4 5 6 6 6 7 6 5 5 5 5 5 5 3 3 4 3 3 4 4 6 8 8
3 4 4 4 4 5 4 3 3 2 2 3 4 4 4 4 5 4 3 4 5 5 5 5 6 6 6 6 5 3 3 3 4 3 2 3 2 3 3 4 4 6 8
4 4 3 3 4 4 4 3 3 2 2 3 3 4 5 5 5 4 4 4 6 6 5 4 4 5 5 5 5 5 5 5 4 3 2 2 2 2 2 2 2 3 4
Wind_Direction
232 293 315 311 303 295 270 253 253 245 226 218 216 211 218 232 242 243 242 242 241 236 231 231 226 227 226 224 223 224 225 222 221 221 223 222 224 224 224 222 220 222 221
224 272 318 315 310 296 260 253 260 251 248 230 232 223 225 233 240 242 244 240 241 241 239 234 230 232 231 228 228 229 231 230 229 228 229 229 232 230 229 228 224 222 222
238 232 256 297 304 302 276 254 272 244 241 234 236 237 227 226 233 235 238 234 235 238 239 236 235 237 235 232 232 232 230 229 230 231 231 231 233 234 235 231 227 225 225
238 213 241 283 292 331 333 233 250 243 255 262 265 265 254 238 234 230 225 222 225 232 235 234 233 237 239 237 235 236 234 232 230 232 233 232 232 232 233 232 229 227 226
254 215 257 291 310 347 312 273 325 164 249 282 274 264 254 246 240 228 223 230 232 232 233 236 235 237 242 245 242 241 239 235 233 232 234 233 232 230 230 230 229 227 226
247 188 252 322 2 22 3 29 103 115 199 248 258 284 283 268 236 230 229 233 240 232 228 232 237 244 248 249 248 248 246 241 237 235 236 233 232 232 232 232 229 225 222
245 168 283 351 4 350 301 294 252 144 27 120 99 357 343 337 312 261 246 246 276 261 231 221 231 244 256 255 252 253 251 247 240 235 235 233 231 227 225 227 223 221 220
267 235 220 249 271 324 332 319 282 198 154 104 123 99 352 342 337 313 303 285 305 289 257 245 243 251 256 259 259 256 250 245 243 237 234 232 229 226 223 217 216 220 220
263 244 225 221 220 200 254 290 188 174 182 129 131 150 155 254 300 309 294 296 303 292 277 261 257 260 258 255 259 259 251 244 244 242 238 235 232 227 224 221 220 223 226
280 263 248 238 232 230 238 246 181 173 170 208 216 218 202 189 213 302 307 286 283 278 273 275 268 261 261 259 258 259 259 250 246 243 238 236 236 228 223 219 221 224 227
311 280 264 259 236 232 231 238 222 180 184 201 205 207 215 235 214 223 281 301 301 274 265 261 261 265 265 262 261 267 258 252 250 245 239 240 241 238 228 223 223 224 226
302 308 304 296 253 237 227 211 217 193 196 197 207 209 204 208 214 216 249 278 287 282 273 261 262 263 261 260 264 275 269 258 255 247 242 242 241 241 237 230 228 227 227
288 295 312 302 290 268 242 217 203 206 198 192 212 226 223 227 218 211 230 265 278 287 286 267 254 264 272 267 265 271 270 266 261 254 247 245 244 244 244 239 234 234 232
254 268 260 265 277 280 275 258 237 242 203 203 219 219 226 238 229 219 215 231 277 292 280 277 281 270 281 274 272 269 271 269 260 260 257 250 245 244 244 239 235 235 232
241 244 250 254 266 262 272 286 270 260 235 237 235 231 236 248 239 232 222 214 221 272 284 288 298 301 298 275 280 274 270 275 265 259 257 258 254 249 243 240 235 230 228
238 235 252 250 259 260 250 238 262 257 236 255 249 241 248 250 244 238 224 211 205 222 259 275 274 293 300 298 293 277 271 278 270 261 255 253 254 249 243 239 233 228 227
232 227 232 235 241 248 248 237 251 245 244 269 271 251 261 254 247 241 225 215 213 208 246 277 267 286 295 306 314 298 280 275 278 271 260 252 252 250 246 241 235 230 228
236 231 229 230 237 241 232 228 238 239 234 253 266 255 261 253 257 251 236 231 229 217 222 263 281 285 279 297 304 304 305 293 284 283 271 261 255 254 251 246 242 234 230
241 241 228 229 236 242 240 237 231 234 236 241 240 236 245 230 261 259 247 243 241 235 221 240 273 278 279 296 304 307 311 306 298 294 285 270 260 257 255 249 244 238 233
236 236 230 229 233 239 242 243 238 240 243 246 236 231 236 232 241 248 246 243 244 247 238 245 265 279 278 286 290 300 309 308 299 303 298 283 270 264 260 251 245 236 229
237 228 230 237 239 237 242 241 238 240 240 247 250 249 251 254 256 248 246 239 233 240 244 247 258 269 274 281 286 284 286 298 287 273 289 287 281 274 265 249 239 234 227
239 234 238 243 250 254 255 243 233 232 236 242 259 265 267 267 275 267 252 238 229 230 237 241 252 257 264 263 265 268 274 288 288 270 272 281 270 268 273 255 242 235 232
236 238 245 245 250 259 259 252 238 219 229 245 253 264 275 281 284 275 271 267 256 249 239 230 244 253 257 255 256 264 258 259 266 276 258 274 269 268 274 263 245 238 236
236 241 248 250 254 262 260 251 239 222 233 248 252 251 261 281 280 274 271 274 271 266 257 244 239 249 253 249 239 245 256 266 271 264 234 262 272 269 283 272 253 242 235
248 246 246 248 252 268 267 251 233 227 250 265 265 262 263 271 276 270 260 270 280 281 272 260 254 256 260 258 247 240 248 259 275 270 228 242 269 284 283 271 259 242 235
249 250 255 254 251 263 267 258 234 234 261 277 278 272 267 266 268 255 243 253 265 272 280 286 280 281 274 270 255 235 233 244 263 266 224 222 251 274 286 273 269 269 258
Height
1538 1538 1539 1539 1540 1540 1540 1540 1540 1541 1542 1542 1543 1544 1544 1545 1545 1546 1547 1547 1548 1548 1549 1549 1550 1550 1551 1551 1552 1553 1553 1553 1554 1555 1555 1556 1557 1557 1558 1559 1559 1560 1561
1538 1538 1538 1539 1539 1539 1540 1540 1540 1540 1540 1541 1541 1542 1543 1543 1544 1545 1545 1546 1546 1547 1547 1548 1549 1549 1549 1549 1550 1551 1551 1551 1552 1553 1553 1554 1555 1555 1556 1556 1557 1558 1558
1538 1538 1538 1538 1538 1539 1539 1539 1539 1539 1539 1539 1540 1540 1541 1542 1542 1543 1544 1544 1545 1545 1546 1547 1547 1547 1548 1548 1548 1548 1549 1549 1550 1550 1551 1551 1552 1552 1553 1554 1555 1555 1556
1538 1538 1538 1538 1538 1537 1537 1537 1537 1537 1538 1538 1538 1539 1539 1540 1541 1541 1542 1543 1543 1544 1545 1545 1545 1546 1546 1546 1546 1546 1547 1547 1548 1548 1548 1549 1549 1550 1550 1551 1552 1552 1553
1538 1538 1538 1537 1537 1536 1536 1536 1536 1536 1536 1536 1537 1537 1538 1539 1539 1540 1540 1541 1542 1542 1543 1543 1543 1544 1544 1544 1544 1544 1544 1544 1545 1545 1546 1546 1547 1547 1548 1548 1549 1550 1550
1538 1538 1537 1537 1536 1535 1535 1534 1535 1534 1535 1535 1536 1536 1537 1537 1538 1538 1538 1539 1540 1540 1540 1541 1541 1541 1541 1541 1541 1541 1542 1542 1542 1542 1542 1543 1544 1544 1545 1546 1546 1547 1547
1538 1537 1537 1536 1536 1535 1534 1533 1533 1533 1533 1534 1534 1535 1535 1536 1536 1536 1537 1537 1537 1538 1538 1538 1538 1538 1538 1538 1538 1539 1539 1539 1539 1539 1539 1540 1540 1541 1542 1542 1543 1544 1544
1537 1537 1536 1536 1535 1534 1533 1532 1532 1531 1532 1533 1533 1533 1534 1535 1534 1535 1535 1535 1535 1535 1535 1535 1535 1535 1535 1535 1535 1536 1536 1536 1536 1536 1536 1536 1537 1537 1538 1539 1540 1541 1541
1536 1536 1535 1535 1534 1533 1532 1531 1531 1530 1530 1532 1532 1533 1533 1533 1533 1533 1533 1533 1533 1533 1533 1533 1532 1532 1532 1532 1532 1532 1532 1532 1532 1532 1532 1533 1534 1534 1535 1535 1536 1537 1538
1535 1535 1534 1534 1533 1532 1531 1531 1531 1530 1530 1530 1531 1532 1532 1532 1532 1531 1531 1531 1531 1531 1530 1530 1530 1530 1529 1529 1529 1529 1529 1529 1529 1529 1529 1529 1530 1530 1531 1531 1532 1534 1534
1534 1533 1533 1532 1532 1531 1531 1530 1530 1530 1529 1529 1529 1530 1530 1530 1530 1530 1528 1529 1529 1528 1528 1528 1527 1527 1527 1526 1526 1526 1526 1526 1525 1526 1526 1526 1526 1527 1527 1528 1529 1530 1531
1532 1532 1531 1531 1530 1530 1529 1529 1528 1528 1528 1528 1528 1528 1528 1528 1528 1528 1527 1526 1525 1525 1525 1525 1524 1524 1524 1523 1523 1523 1523 1523 1522 1522 1522 1523 1523 1523 1524 1524 1525 1526 1527
1530 1530 1530 1529 1529 1528 1528 1527 1527 1526 1526 1526 1526 1525 1525 1525 1525 1525 1525 1524 1523 1522 1522 1522 1521 1521 1520 1520 1520 1520 1519 1519 1519 1519 1519 1519 1519 1519 1520 1521 1522 1522 1523
1528 1528 1527 1527 1527 1526 1526 1525 1525 1524 1523 1523 1523 1523 1523 1522 1523 1522 1522 1521 1520 1519 1519 1519 1518 1518 1517 1517 1517 1516 1516 1516 1516 1515 1515 1515 1515 1516 1516 1517 1518 1518 1518
1526 1525 1525 1525 1524 1524 1523 1523 1522 1522 1521 1520 1520 1520 1520 1519 1519 1519 1519 1519 1519 1517 1516 1515 1515 1515 1514 1514 1513 1513 1513 1512 1512 1512 1512 1511 1511 1512 1512 1513 1513 1514 1514
1523 1523 1523 1522 1522 1521 1520 1520 1519 1519 1518 1518 1517 1517 1516 1516 1516 1515 1515 1515 1515 1515 1513 1512 1512 1512 1512 1511 1510 1509 1509 1509 1509 1508 1508 1508 1508 1507 1508 1508 1509 1509 1510
1520 1520 1520 1519 1519 1518 1518 1517 1516 1516 1515 1515 1514 1513 1513 1513 1512 1512 1512 1512 1511 1511 1510 1509 1510 1509 1508 1508 1507 1506 1506 1505 1505 1505 1505 1504 1504 1504 1504 1504 1504 1505 1505
1518 1518 1517 1517 1516 1515 1515 1514 1513 1513 1512 1511 1511 1511 1510 1510 1509 1509 1508 1508 1508 1508 1507 1506 1506 1505 1505 1504 1503 1503 1503 1502 1502 1501 1501 1500 1500 1500 1500 1500 1500 1500 1501
1515 1515 1514 1514 1513 1513 1512 1511 1510 1510 1509 1509 1508 1507 1507 1506 1506 1505 1505 1505 1505 1505 1504 1503 1502 1502 1501 1501 1500 1500 1499 1499 1498 1498 1497 1496 1496 1496 1495 1495 1496 1496 1496
1512 1511 1511 1511 1510 1510 1509 1508 1508 1507 1507 1506 1505 1504 1504 1503 1503 1502 1502 1502 1502 1501 1501 1500 1499 1499 1498 1497 1497 1496 1495 1495 1494 1494 1493 1492 1492 1491 1491 1491 1491 1491 1492
1508 1508 1508 1507 1507 1507 1506 1505 1505 1504 1503 1503 1502 1501 1501 1500 1500 1499 1499 1498 1498 1497 1497 1496 1496 1495 1494 1494 1493 1493 1492 1491 1491 1490 1490 1489 1488 1487 1487 1487 1486 1486 1487
1505 1505 1504 1504 1503 1503 1503 1502 1502 1501 1500 1499 1499 1498 1497 1497 1496 1496 1495 1495 1494 1494 1493 1493 1492 1491 1491 1491 1490 1490 1489 1488 1487 1487 1486 1485 1484 1483 1483 1483 1482 1482 1482
1502 1501 1501 1501 1500 1500 1500 1499 1498 1498 1497 1496 1495 1494 1494 1493 1492 1492 1491 1491 1490 1490 1490 1489 1488 1488 1487 1487 1487 1486 1485 1485 1484 1483 1482 1481 1480 1479 1479 1479 1479 1478 1478
1498 1498 1498 1497 1496 1496 1495 1495 1495 1494 1493 1492 1491 1491 1490 1489 1488 1488 1487 1487 1486 1486 1486 1485 1485 1484 1484 1484 1483 1483 1482 1481 1480 1479 1479 1477 1476 1475 1475 1474 1474 1474 1474
1495 1494 1494 1493 1492 1492 1491 1491 1490 1490 1489 1488 1488 1487 1486 1485 1485 1484 1483 1482 1482 1482 1482 1481 1481 1480 1480 1480 1479 1479 1478 1477 1475 1475 1474 1473 1472 1471 1470 1470 1470 1470 1470
1491 1491 1490 1489 1488 1488 1487 1487 1487 1486 1485 1484 1483 1483 1482 1481 1481 1480 1479 1478 1478 1477 1477 1477 1476 1476 1475 1475 1475 1474 1473 1473 1471 1470 1470 1469 1468 1467 1466 1465 1465 1466 1465